Index of /ubuntu/pool/universe/l

[ICO]NameLast modifiedSizeDescription

[PARENTDIR]Parent Directory  -  
[DIR]l2tp-ipsec-vpn-daemon/2015-09-14 20:13 -  
[DIR]l2tp-ipsec-vpn/2015-09-14 20:13 -  
[DIR]l2tpns/2015-09-14 20:13 -  
[DIR]l7-filter-userspace/2017-06-27 00:18 -  
[DIR]l7-protocols/2017-06-27 00:18 -  
[DIR]labeling/2015-09-10 08:42 -  
[DIR]lablgl/2017-06-27 00:18 -  
[DIR]lablgtk-extras/2016-05-03 23:37 -  
[DIR]lablgtk2/2017-06-27 00:18 -  
[DIR]lablgtkmathview/2017-06-27 00:18 -  
[DIR]labltk/2016-05-03 23:37 -  
[DIR]laborejo/2015-11-10 00:34 -  
[DIR]labrea/2015-09-14 20:14 -  
[DIR]laby/2017-06-27 00:18 -  
[DIR]labyrinth/2017-06-27 00:18 -  
[DIR]lacheck/2015-09-14 20:14 -  
[DIR]ladish/2016-05-03 23:37 -  
[DIR]laditools/2016-05-03 23:37 -  
[DIR]ladr/2015-09-14 20:14 -  
[DIR]ladspa-sdk/2017-06-27 00:18 -  
[DIR]ladvd/2016-05-03 23:37 -  
[DIR]lakai/2015-09-14 20:14 -  
[DIR]lam/2017-06-27 00:18 -  
[DIR]lambda-term/2016-05-03 23:37 -  
[DIR]lambdabot/2015-09-14 20:15 -  
[DIR]lame/2016-05-03 23:38 -  
[DIR]lammps/2016-05-03 23:39 -  
[DIR]landell/2015-09-10 08:46 -  
[DIR]landslide/2015-09-10 08:46 -  
[DIR]langdrill/2015-09-14 20:15 -  
[DIR]langford/2017-11-08 23:50 -  
[DIR]langscan/2015-09-14 20:15 -  
[DIR]language-pack-kde-ar/2015-09-10 08:46 -  
[DIR]language-pack-kde-bg/2015-09-10 08:46 -  
[DIR]language-pack-kde-bs/2015-09-10 08:46 -  
[DIR]language-pack-kde-ca/2015-09-10 08:46 -  
[DIR]language-pack-kde-cs/2015-09-10 08:46 -  
[DIR]language-pack-kde-da/2015-09-10 08:46 -  
[DIR]language-pack-kde-de/2015-09-10 08:46 -  
[DIR]language-pack-kde-el/2015-09-10 08:46 -  
[DIR]language-pack-kde-en/2015-09-10 08:46 -  
[DIR]language-pack-kde-es/2015-09-10 08:46 -  
[DIR]language-pack-kde-et/2015-09-10 08:46 -  
[DIR]language-pack-kde-eu/2015-09-10 08:46 -  
[DIR]language-pack-kde-fa/2015-09-10 08:46 -  
[DIR]language-pack-kde-fi/2015-09-10 08:46 -  
[DIR]language-pack-kde-fr/2015-09-10 08:46 -  
[DIR]language-pack-kde-ga/2015-09-10 08:46 -  
[DIR]language-pack-kde-gl/2015-09-10 08:46 -  
[DIR]language-pack-kde-he/2015-09-10 08:46 -  
[DIR]language-pack-kde-hi/2015-09-10 08:46 -  
[DIR]language-pack-kde-hr/2015-09-10 08:46 -  
[DIR]language-pack-kde-hu/2015-09-10 08:46 -  
[DIR]language-pack-kde-ia/2015-09-10 08:46 -  
[DIR]language-pack-kde-is/2015-09-10 08:46 -  
[DIR]language-pack-kde-it/2015-09-10 08:46 -  
[DIR]language-pack-kde-ja/2015-09-10 08:46 -  
[DIR]language-pack-kde-kk/2015-09-10 08:46 -  
[DIR]language-pack-kde-km/2015-09-10 08:46 -  
[DIR]language-pack-kde-ko/2015-09-10 08:46 -  
[DIR]language-pack-kde-lt/2015-09-10 08:46 -  
[DIR]language-pack-kde-lv/2015-09-10 08:47 -  
[DIR]language-pack-kde-mr/2015-09-10 08:47 -  
[DIR]language-pack-kde-nb/2015-09-10 08:47 -  
[DIR]language-pack-kde-nds/2015-09-10 08:47 -  
[DIR]language-pack-kde-nl/2015-09-10 08:47 -  
[DIR]language-pack-kde-nn/2015-09-10 08:47 -  
[DIR]language-pack-kde-pa/2015-09-10 08:47 -  
[DIR]language-pack-kde-pl/2015-09-10 08:47 -  
[DIR]language-pack-kde-pt/2015-09-10 08:47 -  
[DIR]language-pack-kde-ro/2015-09-10 08:47 -  
[DIR]language-pack-kde-ru/2015-09-10 08:47 -  
[DIR]language-pack-kde-si/2015-09-10 08:47 -  
[DIR]language-pack-kde-sk/2015-09-10 08:47 -  
[DIR]language-pack-kde-sl/2015-09-10 08:47 -  
[DIR]language-pack-kde-sr/2015-09-10 08:47 -  
[DIR]language-pack-kde-sv/2015-09-10 08:47 -  
[DIR]language-pack-kde-tg/2015-09-10 08:47 -  
[DIR]language-pack-kde-th/2015-09-10 08:47 -  
[DIR]language-pack-kde-tr/2015-09-10 08:47 -  
[DIR]language-pack-kde-ug/2015-09-10 08:47 -  
[DIR]language-pack-kde-uk/2015-09-10 08:47 -  
[DIR]language-pack-kde-vi/2015-09-10 08:47 -  
[DIR]language-pack-kde-wa/2015-09-10 08:47 -  
[DIR]language-pack-kde-zh-hans/2015-09-10 08:47 -  
[DIR]language-pack-kde-zh-hant/2015-09-10 08:47 -  
[DIR]language-pack-touch-ast/2016-10-17 23:50 -  
[DIR]language-pack-touch-bg/2016-10-17 23:50 -  
[DIR]language-pack-touch-bs/2016-10-17 23:50 -  
[DIR]language-pack-touch-ca/2016-10-17 23:50 -  
[DIR]language-pack-touch-cs/2016-10-17 23:50 -  
[DIR]language-pack-touch-da/2016-10-17 23:50 -  
[DIR]language-pack-touch-de/2016-10-17 23:47 -  
[DIR]language-pack-touch-el/2016-10-17 23:47 -  
[DIR]language-pack-touch-en/2016-10-17 23:47 -  
[DIR]language-pack-touch-es/2016-10-17 23:47 -  
[DIR]language-pack-touch-eu/2016-10-17 23:47 -  
[DIR]language-pack-touch-fi/2016-10-17 23:47 -  
[DIR]language-pack-touch-fr/2016-10-17 23:47 -  
[DIR]language-pack-touch-gd/2015-09-10 08:47 -  
[DIR]language-pack-touch-gl/2016-10-17 23:47 -  
[DIR]language-pack-touch-he/2016-10-17 23:48 -  
[DIR]language-pack-touch-hi/2015-09-10 08:47 -  
[DIR]language-pack-touch-hr/2016-10-17 23:48 -  
[DIR]language-pack-touch-hu/2016-10-17 23:48 -  
[DIR]language-pack-touch-id/2016-10-17 23:48 -  
[DIR]language-pack-touch-it/2016-10-17 23:48 -  
[DIR]language-pack-touch-ja/2016-10-17 23:48 -  
[DIR]language-pack-touch-ko/2016-10-17 23:48 -  
[DIR]language-pack-touch-lt/2016-10-17 23:48 -  
[DIR]language-pack-touch-lv/2016-10-17 23:48 -  
[DIR]language-pack-touch-ms/2016-10-17 23:48 -  
[DIR]language-pack-touch-nb/2016-10-17 23:48 -  
[DIR]language-pack-touch-nl/2016-10-17 23:48 -  
[DIR]language-pack-touch-oc/2016-10-17 23:48 -  
[DIR]language-pack-touch-pa/2016-10-17 23:48 -  
[DIR]language-pack-touch-pl/2016-10-17 23:48 -  
[DIR]language-pack-touch-pt/2016-10-17 23:48 -  
[DIR]language-pack-touch-ro/2016-10-17 23:48 -  
[DIR]language-pack-touch-ru/2016-10-17 23:48 -  
[DIR]language-pack-touch-sk/2016-10-17 23:48 -  
[DIR]language-pack-touch-sl/2016-10-17 23:48 -  
[DIR]language-pack-touch-sr/2016-10-17 23:48 -  
[DIR]language-pack-touch-sv/2016-10-17 23:48 -  
[DIR]language-pack-touch-tr/2016-10-17 23:48 -  
[DIR]language-pack-touch-ug/2016-10-17 23:48 -  
[DIR]language-pack-touch-uk/2016-10-17 23:48 -  
[DIR]language-pack-touch-zh-hans/2016-10-17 23:48 -  
[DIR]language-pack-touch-zh-hant/2016-10-17 23:48 -  
[DIR]language-selector/2015-09-10 08:48 -  
[DIR]languages4translatewiki/2015-09-10 08:48 -  
[DIR]lapack/2017-06-27 00:18 -  
[DIR]laptop-mode-tools/2017-06-27 00:18 -  
[DIR]larch/2015-09-10 08:49 -  
[DIR]larswm/2015-09-14 20:16 -  
[DIR]laserboy/2015-11-10 00:36 -  
[DIR]lasi/2015-11-10 00:36 -  
[DIR]lasso/2017-06-27 00:18 -  
[DIR]last-align/2017-06-27 00:18 -  
[DIR]lastfm/2017-06-27 00:18 -  
[DIR]lastfmproxy/2017-06-27 00:18 -  
[DIR]lastfmsubmitd/2017-06-27 00:18 -  
[DIR]lastpass-cli/2016-05-03 23:40 -  
[DIR]lat/2017-06-27 00:18 -  
[DIR]latd/2016-05-03 23:40 -  
[DIR]late/2017-06-27 00:18 -  
[DIR]latencytop/2017-06-27 00:18 -  
[DIR]latex-cjk-chinese-arphic/2017-06-27 00:18 -  
[DIR]latex-cjk-japanese-wadalab/2015-09-10 08:55 -  
[DIR]latex-coffee-stains/2015-09-10 08:55 -  
[DIR]latex-make/2017-06-27 00:18 -  
[DIR]latex-mk/2017-06-27 00:18 -  
[DIR]latex-sanskrit/2015-09-14 20:17 -  
[DIR]latex2html/2017-06-27 00:18 -  
[DIR]latex2rtf/2017-06-27 00:18 -  
[DIR]latex209/2017-06-27 00:18 -  
[DIR]latexdiff/2016-05-03 23:40 -  
[DIR]latexdraw/2017-06-27 00:18 -  
[DIR]latexila/2015-11-10 00:36 -  
[DIR]latexmk/2017-06-27 00:18 -  
[DIR]latexml/2015-11-10 00:36 -  
[DIR]latrace/2015-09-14 20:17 -  
[DIR]latrine/2015-09-14 20:17 -  
[DIR]lattice/2017-06-27 00:18 -  
[DIR]latticeextra/2017-06-27 00:18 -  
[DIR]launchtool/2017-06-27 00:18 -  
[DIR]launchy/2015-09-14 20:17 -  
[DIR]lava-coordinator/2015-11-10 00:36 -  
[DIR]lava-dispatcher/2015-11-10 00:36 -  
[DIR]lava-server/2015-11-10 00:36 -  
[DIR]lava-tool/2016-05-03 23:41 -  
[DIR]lavapdu/2015-11-10 00:36 -  
[DIR]lazarus/2017-06-27 00:18 -  
[DIR]lazr.batchnavigator/2017-06-27 00:18 -  
[DIR]lazr.config/2015-11-10 00:40 -  
[DIR]lazr.delegates/2017-06-27 00:18 -  
[DIR]lazr.enum/2017-06-27 00:18 -  
[DIR]lazr.lifecycle/2017-06-27 00:18 -  
[DIR]lazr.restful/2017-06-27 00:18 -  
[DIR]lazr.smtptest/2015-11-10 00:40 -  
[DIR]lazy-object-proxy/2016-05-03 23:46 -  
[DIR]lazyarray/2015-09-10 09:08 -  
[DIR]lazygal/2017-06-27 00:18 -  
[DIR]lbcd/2015-11-10 00:40 -  
[DIR]lbreakout2/2015-09-14 20:31 -  
[DIR]lbt/2017-06-27 00:18 -  
[DIR]lbzip2/2017-06-27 00:18 -  
[DIR]lcab/2015-09-14 20:31 -  
[DIR]lcalc/2017-06-27 00:18 -  
[DIR]lcas-lcmaps-gt4-interface/2015-09-14 20:31 -  
[DIR]lcas/2015-09-14 20:31 -  
[DIR]lcd4linux/2017-06-27 00:18 -  
[DIR]lcdf-typetools/2017-06-27 00:18 -  
[DIR]lcdproc/2017-06-27 00:18 -  
[DIR]lcgdm/2016-05-03 23:47 -  
[DIR]lcmaps-plugins-basic/2015-09-14 20:34 -  
[DIR]lcmaps-plugins-jobrep/2015-09-14 20:34 -  
[DIR]lcmaps-plugins-verify-proxy/2015-09-14 20:34 -  
[DIR]lcmaps-plugins-voms/2015-11-10 00:41 -  
[DIR]lcmaps/2015-11-10 00:41 -  
[DIR]lcms/2017-06-27 00:18 -  
[DIR]lcms2/2016-05-04 23:35 -  
[DIR]lcov/2017-06-27 00:18 -  
[DIR]lcrack/2015-09-14 20:34 -  
[DIR]lcrt/2015-09-14 20:34 -  
[DIR]ldap-account-manager/2017-06-27 00:18 -  
[DIR]ldap-auth-client/2015-09-10 09:12 -  
[DIR]ldap-git-backup/2015-09-10 09:12 -  
[DIR]ldap-haskell/2017-06-27 00:18 -  
[DIR]ldap2dns/2015-09-14 20:34 -  
[DIR]ldap2zone/2017-06-27 00:18 -  
[DIR]ldapjdk/2015-09-10 09:12 -  
[DIR]ldapscripts/2017-06-27 00:18 -  
[DIR]ldaptor/2017-06-27 00:18 -  
[DIR]ldapvi/2017-06-27 00:18 -  
[DIR]ldb/2017-06-27 00:18 -  
[DIR]ldc/2017-06-27 00:18 -  
[DIR]ldif3/2016-05-03 23:49 -  
[DIR]ldiskfsprogs/2017-06-27 00:18 -  
[DIR]ldm-themes/2015-09-10 09:14 -  
[DIR]ldm-ubuntu-themes/2017-06-27 00:18 -  
[DIR]ldm/2016-05-03 23:49 -  
[DIR]ldns/2017-06-27 00:18 -  
[DIR]ldp-docbook-stylesheets/2016-05-03 23:49 -  
[DIR]ldtp-doc/2017-06-27 00:18 -  
[DIR]ldtp/2017-06-27 00:18 -  
[DIR]le-dico-de-rene-cougnenc/2016-05-03 23:49 -  
[DIR]le/2017-06-27 00:18 -  
[DIR]leaflet-markercluster/2015-09-10 09:14 -  
[DIR]leaflet/2015-09-10 09:14 -  
[DIR]leafnode/2017-06-27 00:18 -  
[DIR]leafpad/2017-06-27 00:18 -  
[DIR]leaktracer/2015-09-14 20:35 -  
[DIR]leave/2015-09-14 20:36 -  
[DIR]lebiniou-data/2015-09-10 09:14 -  
[DIR]lebiniou/2015-11-10 00:43 -  
[DIR]ledger-autosync/2015-11-10 00:43 -  
[DIR]ledger/2017-06-27 00:18 -  
[DIR]ledgersmb/2015-11-10 00:43 -  
[DIR]ledit/2016-05-03 23:52 -  
[DIR]ledmon/2015-09-14 20:36 -  
[DIR]leds-alix/2015-09-10 09:15 -  
[DIR]legacyhuman-theme/2015-09-10 09:15 -  
[DIR]legit/2015-09-10 09:15 -  
[DIR]lein-clojars/2015-09-10 09:15 -  
[DIR]leiningen/2015-09-10 09:15 -  
[DIR]lekhonee-gnome/2015-09-14 20:36 -  
[DIR]lemonldap-ng/2017-06-27 00:18 -  
[DIR]lemonpos/2017-06-27 00:18 -  
[DIR]lensfun/2016-05-03 23:53 -  
[DIR]leocad/2016-05-03 23:53 -  
[DIR]leptonlib/2017-06-27 00:18 -  
[DIR]lernid/2017-06-27 00:18 -  
[DIR]less-elements.js/2016-05-03 23:53 -  
[DIR]less.js/2016-05-03 23:53 -  
[DIR]lesstif2/2015-09-14 20:37 -  
[DIR]letodms/2016-05-03 23:53 -  
[DIR]letterize/2016-05-03 23:53 -  
[DIR]levee/2017-06-27 00:18 -  
[DIR]leveldb-java/2015-11-10 00:43 -  
[DIR]leveldb-sharp/2016-05-03 23:53 -  
[DIR]leveldb/2015-09-14 20:37 -  
[DIR]lfhex/2015-09-14 20:37 -  
[DIR]lfm/2017-06-27 00:18 -  
[DIR]lft/2017-06-27 00:18 -  
[DIR]lgeneral-data/2016-05-03 23:53 -  
[DIR]lgeneral/2016-05-03 23:53 -  
[DIR]lgogdownloader/2016-05-03 23:53 -  
[DIR]lhapdf/2016-05-03 23:53 -  
[DIR]lhasa/2016-08-22 23:34 -  
[DIR]lhs2tex/2017-06-27 00:18 -  
[DIR]lice/2015-09-10 09:18 -  
[DIR]lice5/2015-11-10 00:44 -  
[DIR]license-reconcile/2016-05-03 23:54 -  
[DIR]licenseutils/2016-05-03 23:54 -  
[DIR]licq/2017-06-27 00:18 -  
[DIR]lie/2017-06-27 00:18 -  
[DIR]liece/2015-09-14 20:38 -  
[DIR]lierolibre/2015-11-10 00:44 -  
[DIR]lifelines/2017-06-27 00:18 -  
[DIR]lifeograph/2017-06-27 00:18 -  
[DIR]liferea/2016-05-03 23:55 -  
[DIR]lift/2015-11-10 00:44 -  
[DIR]liggghts/2016-05-03 23:55 -  
[DIR]light-locker-settings/2016-07-20 23:46 -  
[DIR]light-locker/2016-05-03 23:55 -  
[DIR]lightbeam/2015-11-10 00:45 -  
[DIR]lightcouch/2015-09-10 09:23 -  
[DIR]lightdm-gtk-greeter-settings/2016-05-03 23:55 -  
[DIR]lightdm-gtk-greeter/2016-05-03 23:55 -  
[DIR]lightdm-kde/2015-09-14 20:41 -  
[DIR]lightdm-remote-session-freerdp/2015-09-14 20:41 -  
[DIR]lightdm-remote-session-uccsconfigure/2015-09-14 20:41 -  
[DIR]lightdm-webkit-greeter/2015-11-10 00:45 -  
[DIR]lightning-extension/2017-06-27 00:18 -  
[DIR]lightproof/2015-11-10 00:45 -  
[DIR]lightsoff/2016-05-03 23:55 -  
[DIR]lightspark/2016-05-03 23:57 -  
[DIR]lightspeed/2017-06-27 00:18 -  
[DIR]lightsquid/2015-09-10 09:26 -  
[DIR]lighttpd/2017-06-27 00:18 -  
[DIR]lightyears/2017-06-27 00:18 -  
[DIR]likewise-open/2017-06-27 00:18 -  
[DIR]likwid/2016-05-03 23:57 -  
[DIR]lilv/2016-05-03 23:57 -  
[DIR]lilypond/2017-06-27 00:18 -  
[DIR]lilyterm/2016-05-04 00:06 -  
[DIR]limba/2016-05-04 00:06 -  
[DIR]lime-forensics/2015-11-10 00:47 -  
[DIR]limereg/2016-05-04 00:06 -  
[DIR]linamc/2015-09-14 20:45 -  
[DIR]linaro-boot-utils/2015-09-14 20:45 -  
[DIR]linaro-image-tools/2015-09-14 20:45 -  
[DIR]linbox/2017-06-27 00:18 -  
[DIR]lincity-ng/2017-06-27 00:18 -  
[DIR]lincity/2017-06-27 00:18 -  
[DIR]lincredits/2017-06-27 00:18 -  
[DIR]lingot/2017-06-27 00:18 -  
[DIR]link-grammar/2017-06-27 00:18 -  
[DIR]linkchecker/2017-06-27 00:18 -  
[DIR]linklint/2015-09-10 10:08 -  
[DIR]links2/2017-06-27 00:18 -  
[DIR]linop/2015-11-10 00:50 -  
[DIR]linpac/2016-05-04 00:07 -  
[DIR]linphone/2017-06-27 00:18 -  
[DIR]linpsk/2017-06-27 00:18 -  
[DIR]linsmith/2017-06-27 00:18 -  
[DIR]linssid/2015-11-10 00:50 -  
[DIR]lintex/2015-09-14 20:46 -  
[DIR]linthesia/2015-11-10 00:50 -  
[DIR]lintian4python/2015-09-10 10:10 -  
[DIR]linux-atm/2017-06-27 00:18 -  
[DIR]linux-aws/2017-11-06 23:51 -  
[DIR]linux-azure-edge/2017-11-07 23:52 -  
[DIR]linux-base/2015-09-10 11:26 -  
[DIR]linux-container/2015-09-10 11:26 -  
[DIR]linux-euclid/2017-10-25 00:18 -  
[DIR]linux-ftpd-ssl/2017-06-27 00:18 -  
[DIR]linux-ftpd/2017-06-27 00:18 -  
[DIR]linux-gcp/2017-11-03 23:58 -  
[DIR]linux-gke/2017-11-03 23:59 -  
[DIR]linux-goldfish/2016-05-04 00:08 -  
[DIR]linux-grsec-base/2016-05-04 00:08 -  
[DIR]linux-igd/2017-06-27 00:18 -  
[DIR]linux-kvm/2017-10-03 01:08 -  
[DIR]linux-lowlatency/2015-09-14 23:34 -  
[DIR]linux-meta-aws/2017-11-22 00:33 -  
[DIR]linux-meta-azure-edge/2017-11-07 23:52 -  
[DIR]linux-meta-euclid/2017-10-25 00:18 -  
[DIR]linux-meta-gcp/2017-11-22 00:33 -  
[DIR]linux-meta-gke/2017-11-22 00:33 -  
[DIR]linux-meta-goldfish/2015-09-14 23:35 -  
[DIR]linux-meta-lowlatency/2015-09-14 23:35 -  
[DIR]linux-meta-oem/2017-11-22 00:33 -  
[DIR]linux-minidisc/2015-11-10 00:51 -  
[DIR]linux-ntfs/2015-09-14 23:35 -  
[DIR]linux-oem/2017-11-22 00:33 -  
[DIR]linux-signed-oem/2017-11-22 00:33 -  
[DIR]linux-user-chroot/2015-09-14 23:37 -  
[DIR]linux-wlan-ng/2015-09-14 23:37 -  
[DIR]linux86/2016-05-04 00:08 -  
[DIR]linuxbrew-wrapper/2016-05-04 00:08 -  
[DIR]linuxdcpp/2017-06-27 00:18 -  
[DIR]linuxdoc-tools/2017-06-27 00:18 -  
[DIR]linuxinfo/2017-06-27 00:18 -  
[DIR]linuxlogo/2017-06-27 00:18 -  
[DIR]linuxptp/2016-05-04 00:08 -  
[DIR]linuxtv-dvb-apps/2017-06-27 00:18 -  
[DIR]lio-utils/2015-09-14 23:37 -  
[DIR]lios/2016-05-04 00:08 -  
[DIR]liq-contrib/2017-06-27 00:18 -  
[DIR]liquidprompt/2016-05-04 00:08 -  
[DIR]liquidsoap/2017-06-27 00:18 -  
[DIR]liquidwar/2017-06-27 00:19 -  
[DIR]lirc/2017-06-27 00:19 -  
[DIR]lire/2017-06-27 00:19 -  
[DIR]lisaac/2017-06-27 00:19 -  
[DIR]list.js/2016-05-04 00:09 -  
[DIR]listadmin/2017-06-27 00:19 -  
[DIR]listaller/2015-09-14 23:39 -  
[DIR]listen/2017-06-27 00:19 -  
[DIR]literki/2016-05-04 00:09 -  
[DIR]litl/2016-05-04 00:09 -  
[DIR]littler/2017-06-27 00:19 -  
[DIR]littlewizard/2017-06-27 00:19 -  
[DIR]live-boot/2016-05-04 00:09 -  
[DIR]live-build/2017-10-24 00:44 -  
[DIR]live-config/2015-09-10 13:21 -  
[DIR]live-debconfig/2015-09-10 13:21 -  
[DIR]live-f1/2017-06-27 00:19 -  
[DIR]live-images/2016-02-20 00:13 -  
[DIR]live-manual/2017-06-27 00:19 -  
[DIR]live-support/2016-05-04 00:10 -  
[DIR]live-tools/2016-05-04 00:10 -  
[DIR]livemix/2017-06-27 00:19 -  
[DIR]lives/2017-06-27 00:19 -  
[DIR]livestreamer/2015-11-10 00:52 -  
[DIR]livetribe-jsr223/2015-09-10 13:24 -  
[DIR]liwc/2015-09-14 23:40 -  
[DIR]lizardfs/2016-05-04 00:11 -  
[DIR]lksctp-tools/2016-05-04 00:11 -  
[DIR]ll-scope/2017-06-27 00:19 -  
[DIR]lldpad/2015-11-10 00:53 -  
[DIR]lldpd/2017-06-27 00:19 -  
[DIR]lletters-media/2015-09-10 13:24 -  
[DIR]lletters/2015-09-14 23:40 -  
[DIR]llgal/2017-06-27 00:19 -  
[DIR]llk-linux/2017-06-27 00:19 -  
[DIR]lltag/2017-06-27 00:19 -  
[DIR]llvm-2.8/2015-09-14 23:41 -  
[DIR]llvm-2.9/2015-09-14 23:41 -  
[DIR]llvm-3.0/2015-09-10 13:26 -  
[DIR]llvm-defaults/2016-06-21 23:47 -  
[DIR]llvm-py/2017-06-27 00:19 -  
[DIR]llvm-toolchain-3.3/2015-09-14 23:51 -  
[DIR]llvm-toolchain-3.4/2016-01-28 00:12 -  
[DIR]llvm-toolchain-3.5/2016-05-04 00:59 -  
[DIR]llvm-toolchain-3.6/2016-05-04 01:11 -  
[DIR]llvm-toolchain-3.7/2016-05-04 01:43 -  
[DIR]llvm-toolchain-3.8/2017-07-25 00:52 -  
[DIR]llvm-toolchain-3.9/2017-10-03 01:08 -  
[DIR]llvm-toolchain-4.0/2017-08-04 00:21 -  
[DIR]llvm-toolchain-5.0/2017-11-22 00:05 -  
[DIR]llvm-toolchain-snapshot/2016-01-28 00:49 -  
[DIR]lm-sensors/2017-06-27 00:19 -  
[DIR]lm4tools/2016-05-04 02:15 -  
[DIR]lmarbles/2015-09-15 00:37 -  
[DIR]lmdb/2017-05-26 23:50 -  
[DIR]lme4/2017-06-27 00:19 -  
[DIR]lmemory/2017-06-27 00:19 -  
[DIR]lmfit-py/2016-05-04 02:15 -  
[DIR]lmms/2017-06-27 00:19 -  
[DIR]lmod/2015-09-10 14:32 -  
[DIR]lmtest/2017-06-27 00:19 -  
[DIR]lnav/2015-11-10 01:32 -  
[DIR]lnpd/2015-09-15 00:39 -  
[DIR]lo-menubar/2016-05-13 00:24 -  
[DIR]loadlin/2017-06-27 00:19 -  
[DIR]loadmeter/2015-09-15 00:39 -  
[DIR]loadwatch/2016-05-04 02:15 -  
[DIR]local-apt-repository/2016-05-04 02:15 -  
[DIR]localehelper/2016-05-04 02:15 -  
[DIR]localepurge/2017-06-27 00:19 -  
[DIR]localization-config/2017-06-27 00:19 -  
[DIR]localizer/2015-09-10 14:32 -  
[DIR]location-service/2016-05-04 02:17 -  
[DIR]lockdev/2017-06-27 00:19 -  
[DIR]lockout/2015-09-15 00:41 -  
[DIR]log4c/2017-06-27 00:19 -  
[DIR]log4cplus/2016-05-04 02:17 -  
[DIR]log4cpp-doc/2015-09-10 14:36 -  
[DIR]log4cpp/2015-11-10 01:34 -  
[DIR]log4cxx/2017-06-27 00:19 -  
[DIR]log4net/2016-05-04 02:18 -  
[DIR]log4shib/2016-05-04 02:18 -  
[DIR]loganalyzer/2016-10-05 23:50 -  
[DIR]logapp/2017-06-27 00:19 -  
[DIR]logaricheck/2015-09-10 14:37 -  
[DIR]logback/2017-06-27 00:19 -  
[DIR]logbook/2016-05-04 02:18 -  
[DIR]logfs-tools/2015-09-15 00:42 -  
[DIR]loggedfs/2015-11-10 01:35 -  
[DIR]loggerhead/2017-06-27 00:19 -  
[DIR]logging-tree/2015-09-10 14:37 -  
[DIR]logidee-tools/2015-09-10 14:37 -  
[DIR]logilab-astng/2017-06-27 00:19 -  
[DIR]logilab-common/2017-06-27 00:19 -  
[DIR]logilab-constraint/2017-06-27 00:19 -  
[DIR]logisim/2015-09-10 14:38 -  
[DIR]logitech-applet/2015-09-15 00:42 -  
[DIR]logjam/2017-06-27 00:19 -  
[DIR]logkeys/2015-09-15 00:42 -  
[DIR]logol/2015-11-10 01:35 -  
[DIR]logreq/2015-09-10 14:38 -  
[DIR]logservice/2015-11-10 01:35 -  
[DIR]logstalgia/2017-06-27 00:19 -  
[DIR]logster/2015-09-10 14:38 -  
[DIR]logtool/2017-06-27 00:19 -  
[DIR]logtools/2016-05-04 02:18 -  
[DIR]logtop/2016-05-04 02:18 -  
[DIR]lojban-common/2015-09-10 14:38 -  
[DIR]lokalize/2016-05-04 02:18 -  
[DIR]loki/2016-05-04 02:18 -  
[DIR]lolcat/2015-09-10 14:39 -  
[DIR]lombok-patcher/2016-05-04 02:18 -  
[DIR]lombok/2016-05-04 02:18 -  
[DIR]lomoco/2017-06-27 00:19 -  
[DIR]londonlaw/2017-06-27 00:19 -  
[DIR]longomatch/2017-06-27 00:19 -  
[DIR]longrun/2015-09-15 00:43 -  
[DIR]loofah/2015-09-10 14:39 -  
[DIR]lookup-el/2017-06-27 00:19 -  
[DIR]lookup/2015-09-15 00:43 -  
[DIR]loook/2016-05-04 02:18 -  
[DIR]loop-aes-utils/2017-06-27 00:19 -  
[DIR]looptools/2015-09-15 00:43 -  
[DIR]loqui/2017-06-27 00:19 -  
[DIR]lordsawar/2017-06-27 00:19 -  
[DIR]lostirc/2015-11-10 01:35 -  
[DIR]lottanzb/2017-06-27 00:19 -  
[DIR]loudmouth/2016-05-04 02:18 -  
[DIR]louie/2015-09-10 14:42 -  
[DIR]lout/2017-06-27 00:19 -  
[DIR]love/2017-06-27 00:19 -  
[DIR]lowpan-tools/2015-09-15 00:44 -  
[DIR]lp-solve/2015-09-15 00:44 -  
[DIR]lpc21isp/2016-05-04 02:18 -  
[DIR]lpctools/2015-09-15 00:44 -  
[DIR]lpe/2016-05-04 02:18 -  
[DIR]lphdisk/2015-09-15 00:44 -  
[DIR]lpr/2017-06-27 00:19 -  
[DIR]lprng-doc/2015-09-10 14:43 -  
[DIR]lprng/2017-06-27 00:19 -  
[DIR]lprof/2017-06-27 00:19 -  
[DIR]lptools/2017-06-27 00:19 -  
[DIR]lrcalc/2015-09-15 00:45 -  
[DIR]lrslib/2015-11-10 01:35 -  
[DIR]lrzip/2017-06-27 00:19 -  
[DIR]lrzsz/2015-11-10 01:35 -  
[DIR]lsat/2016-05-04 02:18 -  
[DIR]lsb-appchk3/2017-06-27 00:19 -  
[DIR]lsb-build-base3/2015-09-15 00:45 -  
[DIR]lsb-build-cc3/2015-09-15 00:45 -  
[DIR]lsb-pkgchk3/2017-06-27 00:19 -  
[DIR]lsb/2017-06-27 00:19 -  
[DIR]lsdb/2015-09-10 14:43 -  
[DIR]lsdvd/2015-09-15 00:45 -  
[DIR]lsh-utils/2017-06-27 00:19 -  
[DIR]lshell/2017-06-27 00:19 -  
[DIR]lshw/2017-11-10 00:18 -  
[DIR]lskat/2016-05-04 02:19 -  
[DIR]lsmbox/2017-06-27 00:19 -  
[DIR]lsyncd/2015-09-15 00:45 -  
[DIR]ltp/2017-06-27 00:19 -  
[DIR]ltpanel/2015-09-15 00:46 -  
[DIR]ltris/2015-11-10 01:36 -  
[DIR]ltrsift/2016-05-04 02:19 -  
[DIR]ltsp-cluster-accountmanager/2017-06-27 00:18 -  
[DIR]ltsp-cluster-agent-weblive/2015-09-09 23:16 -  
[DIR]ltsp-cluster-agent/2015-09-09 23:16 -  
[DIR]ltsp-cluster-control/2016-05-04 02:19 -  
[DIR]ltsp-cluster-lbagent/2017-06-27 00:18 -  
[DIR]ltsp-cluster-lbserver/2017-06-27 00:18 -  
[DIR]ltsp-cluster-nxloadbalancer/2015-09-09 23:17 -  
[DIR]ltsp-cluster-pxeconfig/2015-09-09 23:17 -  
[DIR]ltsp-docs/2017-06-27 00:18 -  
[DIR]ltsp-manager/2015-09-09 23:17 -  
[DIR]ltsp/2017-06-27 00:18 -  
[DIR]ltspfs/2016-05-04 02:19 -  
[DIR]ltt-control/2017-03-24 00:23 -  
[DIR]lttng-modules/2017-11-22 00:33 -  
[DIR]lttng-tools/2015-09-15 00:46 -  
[DIR]lttng-ust/2015-09-15 00:46 -  
[DIR]lttnganalyses/2016-05-04 02:19 -  
[DIR]lttngtop/2016-05-04 02:19 -  
[DIR]lttoolbox/2017-06-27 00:18 -  
[DIR]lttv/2016-05-04 02:19 -  
[DIR]ltx/2015-09-09 23:17 -  
[DIR]lua-ansicolors/2016-05-04 02:19 -  
[DIR]lua-apr/2015-11-10 01:36 -  
[DIR]lua-augeas/2015-09-15 00:47 -  
[DIR]lua-bit32/2016-05-04 02:19 -  
[DIR]lua-bitop/2017-06-27 00:18 -  
[DIR]lua-cgi/2017-06-27 00:18 -  
[DIR]lua-cjson/2015-09-15 00:47 -  
[DIR]lua-cliargs/2016-05-04 02:19 -  
[DIR]lua-copas/2017-06-27 00:18 -  
[DIR]lua-cosmo/2017-06-27 00:18 -  
[DIR]lua-coxpcall/2017-06-27 00:18 -  
[DIR]lua-curl/2017-06-27 00:18 -  
[DIR]lua-cyrussasl/2015-09-15 00:47 -  
[DIR]lua-dbi/2016-05-04 02:19 -  
[DIR]lua-discount/2015-11-10 01:36 -  
[DIR]lua-dkjson/2016-05-04 02:19 -  
[DIR]lua-doc/2017-06-27 00:18 -  
[DIR]lua-event/2015-11-10 01:36 -  
[DIR]lua-expat/2017-06-27 00:18 -  
[DIR]lua-filesystem/2017-06-27 00:18 -  
[DIR]lua-iconv/2017-06-27 00:18 -  
[DIR]lua-json/2017-06-27 00:18 -  
[DIR]lua-ldap/2015-09-15 00:47 -  
[DIR]lua-ldoc/2016-05-04 02:19 -  
[DIR]lua-leg/2017-06-27 00:18 -  
[DIR]lua-lemock/2015-09-09 23:18 -  
[DIR]lua-lgi/2016-05-04 02:19 -  
[DIR]lua-logging/2017-06-27 00:18 -  
[DIR]lua-lpeg/2017-06-27 00:18 -  
[DIR]lua-lpty/2015-09-15 00:47 -  
[DIR]lua-luassert/2016-05-04 02:19 -  
[DIR]lua-markdown/2017-06-27 00:18 -  
[DIR]lua-md5/2017-06-27 00:18 -  
[DIR]lua-mediator/2016-05-04 02:19 -  
[DIR]lua-messagepack/2016-05-04 02:19 -  
[DIR]lua-mode/2017-06-27 00:18 -  
[DIR]lua-nginx-cookie/2016-05-04 02:19 -  
[DIR]lua-nginx-dns/2016-05-04 02:19 -  
[DIR]lua-nginx-kafka/2016-05-04 02:19 -  
[DIR]lua-nginx-memcached/2015-09-09 23:19 -  
[DIR]lua-nginx-redis-connector/2016-05-04 02:19 -  
[DIR]lua-nginx-redis/2015-09-09 23:19 -  
[DIR]lua-nginx-string/2016-05-04 02:19 -  
[DIR]lua-nginx-websocket/2015-09-09 23:19 -  
[DIR]lua-orbit/2017-06-27 00:18 -  
[DIR]lua-penlight/2015-11-10 01:36 -  
[DIR]lua-posix/2017-06-27 00:18 -  
[DIR]lua-redis/2015-11-10 01:36 -  
[DIR]lua-rexlib/2017-06-27 00:18 -  
[DIR]lua-rings/2017-06-27 00:18 -  
[DIR]lua-say/2015-11-10 01:36 -  
[DIR]lua-sec/2017-06-27 00:18 -  
[DIR]lua-soap/2017-06-27 00:18 -  
[DIR]lua-sql/2017-06-27 00:18 -  
[DIR]lua-svn/2017-06-27 00:18 -  
[DIR]lua-term/2015-09-15 00:48 -  
[DIR]lua-unit/2015-11-10 01:36 -  
[DIR]lua-uri/2015-09-15 00:48 -  
[DIR]lua-wsapi/2017-06-27 00:18 -  
[DIR]lua-xmlrpc/2017-06-27 00:18 -  
[DIR]lua-yaml/2015-11-10 01:36 -  
[DIR]lua-zip/2017-06-27 00:18 -  
[DIR]lua-zlib/2015-09-15 00:48 -  
[DIR]lua5.1-policy/2017-06-27 00:18 -  
[DIR]lua5.1/2016-05-04 02:19 -  
[DIR]lua5.2/2015-09-15 00:48 -  
[DIR]lua5.3/2016-05-04 02:19 -  
[DIR]lua50/2017-06-27 00:18 -  
[DIR]luabind/2017-06-27 00:18 -  
[DIR]luacheck/2016-05-04 02:19 -  
[DIR]luajit/2017-06-27 00:18 -  
[DIR]luakit/2015-11-10 01:36 -  
[DIR]luarocks/2017-06-27 00:18 -  
[DIR]luasocket/2017-06-27 00:18 -  
[DIR]luasseq/2015-09-09 23:21 -  
[DIR]lubuntu-artwork/2017-06-27 00:18 -  
[DIR]lubuntu-default-settings/2017-10-10 00:01 -  
[DIR]lubuntu-meta/2017-11-22 00:33 -  
[DIR]lubuntu-software-center/2015-11-10 01:37 -  
[DIR]lucene++/2015-11-10 01:38 -  
[DIR]lucene-solr/2016-05-04 02:22 -  
[DIR]lucene2/2017-06-27 00:18 -  
[DIR]lucene4.10/2015-11-10 01:38 -  
[DIR]lucene4/2015-09-09 23:29 -  
[DIR]luciole/2017-06-27 00:18 -  
[DIR]luckybackup/2017-06-27 00:18 -  
[DIR]ludevit/2015-09-09 23:30 -  
[DIR]luma/2015-09-09 23:30 -  
[DIR]luminance-hdr/2016-05-04 02:22 -  
[DIR]lunar-date/2015-09-15 00:50 -  
[DIR]lunar/2016-05-04 02:22 -  
[DIR]lunch/2016-05-04 02:22 -  
[DIR]lunzip/2015-11-10 01:39 -  
[DIR]luola-levels/2017-06-27 00:18 -  
[DIR]luola-nostalgy/2017-06-27 00:18 -  
[DIR]luola/2017-06-27 00:18 -  
[DIR]lure-of-the-temptress/2016-05-04 02:22 -  
[DIR]lurker/2015-09-15 00:50 -  
[DIR]lusca/2015-09-15 00:50 -  
[DIR]lusernet.app/2017-06-27 00:18 -  
[DIR]lush/2017-06-27 00:18 -  
[DIR]lustre/2015-09-15 00:50 -  
[DIR]lutefisk/2015-09-15 00:50 -  
[DIR]luvcview/2017-06-27 00:18 -  
[DIR]luxio/2015-09-15 00:50 -  
[DIR]lv/2016-05-04 02:22 -  
[DIR]lv2-c++-tools/2016-05-04 02:22 -  
[DIR]lv2-extensions-good/2015-09-09 23:32 -  
[DIR]lv2/2015-11-10 01:39 -  
[DIR]lv2core/2017-06-27 00:18 -  
[DIR]lv2dynparam1/2017-06-27 00:18 -  
[DIR]lv2fil/2015-09-15 00:50 -  
[DIR]lv2file/2015-09-15 00:51 -  
[DIR]lv2proc/2015-09-15 00:51 -  
[DIR]lv2vocoder/2015-09-15 00:51 -  
[DIR]lvm2/2017-06-27 00:18 -  
[DIR]lvtk/2015-11-10 01:39 -  
[DIR]lwat/2017-06-27 00:18 -  
[DIR]lwatch/2015-09-15 00:51 -  
[DIR]lwipv6/2017-06-27 00:18 -  
[DIR]lwjgl/2016-05-04 02:22 -  
[DIR]lwm/2017-06-27 00:18 -  
[DIR]lwn4chrome/2016-05-04 02:22 -  
[DIR]lwt/2017-06-27 00:18 -  
[DIR]lx-gdb/2015-09-15 00:51 -  
[DIR]lxappearance-obconf/2016-05-04 02:23 -  
[DIR]lxappearance/2017-06-27 00:18 -  
[DIR]lxc-android-config/2016-05-04 02:23 -  
[DIR]lxc/2017-06-27 00:18 -  
[DIR]lxcfs/2017-11-22 00:33 -  
[DIR]lxctl/2015-09-09 23:34 -  
[DIR]lxd/2017-11-22 00:33 -  
[DIR]lxde-common/2017-06-27 00:18 -  
[DIR]lxde-icon-theme/2015-09-09 23:34 -  
[DIR]lxde-metapackages/2016-05-04 02:23 -  
[DIR]lxdm/2017-06-27 00:18 -  
[DIR]lximage-qt/2016-05-04 02:23 -  
[DIR]lxinput/2017-06-27 00:18 -  
[DIR]lxkeymap/2015-09-09 23:35 -  
[DIR]lxlauncher/2017-06-27 00:18 -  
[DIR]lxmenu-data/2017-06-27 00:18 -  
[DIR]lxmms2/2015-09-15 00:52 -  
[DIR]lxmusic/2017-06-27 00:18 -  
[DIR]lxpanel/2017-06-27 00:18 -  
[DIR]lxqt-about/2016-05-04 02:23 -  
[DIR]lxqt-admin/2016-05-04 02:23 -  
[DIR]lxqt-common/2016-05-04 02:23 -  
[DIR]lxqt-config/2016-05-04 02:23 -  
[DIR]lxqt-globalkeys/2016-05-04 02:23 -  
[DIR]lxqt-metapackages/2016-05-04 02:23 -  
[DIR]lxqt-notificationd/2016-05-04 02:23 -  
[DIR]lxqt-openssh-askpass/2016-05-04 02:23 -  
[DIR]lxqt-panel/2016-05-04 02:23 -  
[DIR]lxqt-policykit/2016-05-04 02:23 -  
[DIR]lxqt-powermanagement/2016-05-04 02:23 -  
[DIR]lxqt-qtplugin/2016-05-04 02:23 -  
[DIR]lxqt-runner/2016-05-04 02:23 -  
[DIR]lxqt-session/2016-05-04 02:23 -  
[DIR]lxqt-sudo/2016-05-04 02:23 -  
[DIR]lxrandr/2017-06-27 00:18 -  
[DIR]lxsession-edit/2017-06-27 00:18 -  
[DIR]lxsession/2017-06-27 00:18 -  
[DIR]lxshortcut/2017-06-27 00:18 -  
[DIR]lxsplit/2015-09-15 00:52 -  
[DIR]lxtask/2016-05-04 02:23 -  
[DIR]lxterminal/2017-08-04 23:48 -  
[DIR]lybniz/2017-06-27 00:18 -  
[DIR]lynis/2017-06-27 00:18 -  
[DIR]lynkeos.app/2017-06-27 00:18 -  
[DIR]lynx-cur/2017-06-27 00:18 -  
[DIR]lynx/2016-05-04 02:23 -  
[DIR]lyricue/2017-06-27 00:18 -  
[DIR]lysdr/2015-11-10 01:39 -  
[DIR]lyskom-elisp-client/2017-06-27 00:18 -  
[DIR]lyskom-server/2017-06-27 00:18 -  
[DIR]lyx/2017-06-27 00:18 -  
[DIR]lz4/2016-05-04 02:23 -  
[DIR]lzd/2015-11-10 01:42 -  
[DIR]lzip/2017-06-27 00:18 -  
[DIR]lziprecover/2015-11-10 01:42 -  
[DIR]lzlib/2017-06-27 00:18 -  
[DIR]lzma/2017-06-27 00:18 -  
[DIR]lzop/2017-06-27 00:18 -